This is the latest recevied weather packets stored in our database for station/object K7YVO. If no packets are shown the sender has not sent any weather packets the latest 10 day(s).
| Time | Temp. | Humidity | Pressure | Rain* | Wind** | Luminosity | Snow |
|---|---|---|---|---|---|---|---|
| 1777735501 | 9.44° C | 96% | 1017.8 hPa | 0 mm | - | 57 W/m² | - |
| 1777735199 | 9.44° C | 96% | 1017.9 hPa | 0 mm | - | 57 W/m² | - |
| 1777734896 | 9.44° C | 96% | 1018.1 hPa | 0 mm | - | 73 W/m² | - |
| 1777734593 | 9.44° C | 96% | 1017.8 hPa | 0 mm | - | 64 W/m² | - |
| 1777734290 | 9.44° C | 96% | 1018 hPa | 0 mm | - | 53 W/m² | - |
| 1777733986 | 9.44° C | 96% | 1018 hPa | 0 mm | - | 47 W/m² | - |
| 1777733683 | 9.44° C | 96% | 1017.9 hPa | 0 mm | - | 41 W/m² | - |
| 1777733379 | 9.44° C | 97% | 1017.9 hPa | 0 mm | - | 35 W/m² | - |
| 1777733076 | 9.44° C | 97% | 1018 hPa | 0 mm | - | 27 W/m² | - |
| 1777732772 | 9.44° C | 97% | 1018 hPa | 0 mm | - | 22 W/m² | - |
| 1777732469 | 9.44° C | 97% | 1018 hPa | 0 mm | - | 18 W/m² | - |
| 1777732167 | 9.44° C | 97% | 1018.1 hPa | 0 mm | - | 16 W/m² | - |
| 1777731864 | 9.44° C | 97% | 1018.2 hPa | 0 mm | - | 15 W/m² | - |
| 1777731561 | 9.44° C | 97% | 1018.2 hPa | 0 mm | - | 16 W/m² | - |
| 1777731258 | 8.89° C | 96% | 1018.1 hPa | 0 mm | - | 15 W/m² | - |
| 1777730956 | 9.44° C | 97% | 1018.1 hPa | 0 mm | - | 14 W/m² | - |
| 1777730654 | 9.44° C | 97% | 1018.3 hPa | 0 mm | - | 11 W/m² | - |
| 1777730350 | 9.44° C | 97% | 1018.2 hPa | 0 mm | - | 9 W/m² | - |
| 1777730046 | 8.89° C | 97% | 1018.1 hPa | 0 mm | - | 8 W/m² | - |
| 1777729439 | 8.89° C | 97% | 1018 hPa | 0 mm | - | 7 W/m² | - |
| 1777729135 | 8.89° C | 97% | 1017.9 hPa | 0 mm | - | 6 W/m² | - |
| 1777728832 | 8.89° C | 97% | 1017.8 hPa | 0 mm | - | 6 W/m² | - |
| 1777728530 | 8.89° C | 97% | 1017.8 hPa | 0 mm | - | 6 W/m² | - |
| 1777728227 | 8.89° C | 97% | 1017.8 hPa | 0 mm | - | 5 W/m² | - |
| 1777727924 | 8.89° C | 97% | 1017.9 hPa | 0 mm | - | 3 W/m² | - |
* Rain latest hour (hover to see other rain measurements)
** Current wind speed in m/s (hover to see current wind gust speed)